contact:dominique.lefevre@mio.osupytheas.fr, maurice.libes@osupytheas.fr
Project:EMSO Ligure-ouest http://www.emso-fr.org/EMSO-France
Sensor Aquadopp, line 04 Serial AQD8517 
DOI : "https://doi.org/10.17882/74513; https://doi.org/10.17882/83244" 
Title:EMSO Ligure Ouest : Data ligne ALBATROSS capteur AQUADOPP - deploiement 2021
Id,Date,Profondeur,Latitude,Longitude,X_East,Y_North,Z_Up,Amplitude_X,Amplitude_Y,Amplitude_Z,Batterie,SoundSpeed,Heading,Pitch,Roll,Pressure,Temperature,Speed,Direction
, , m, degrees North, degrees East, m.s-1, m.s-1,m.s-1, 1, 1, 1, Volt, m.s-1, degree, degree, degree, dbar, degree_C, m.s-1, degree
04,2022-03-21T21:30:00,1000.0,42.79,6.0312,-0.023,0.031,0.007,60.0,62.0,60.0,12.2,1504.5,300.7,-0.8,-0.2,967.457,13.24,0.038,323.4
04,2022-03-21T22:00:00,1000.0,42.79,6.0312,-0.021,0.027,0.001,61.0,64.0,62.0,12.2,1504.5,307.5,-0.8,-0.3,967.452,13.24,0.034,322.1
04,2022-03-21T22:30:00,1000.0,42.79,6.0312,-0.043,0.016,0.005,61.0,63.0,60.0,12.2,1504.5,306.8,-0.8,-0.3,967.442,13.24,0.045,290.4
04,2022-03-21T23:00:00,1000.0,42.79,6.0312,-0.046,0.03,-0.005,62.0,62.0,60.0,12.2,1504.5,299.1,-0.8,-0.2,967.422,13.24,0.054,303.1
04,2022-03-21T23:30:00,1000.0,42.79,6.0312,-0.042,0.012,-0.001,62.0,62.0,60.0,12.2,1504.5,296.9,-0.8,-0.2,967.415,13.23,0.043,285.9
04,2022-03-22T00:00:00,1000.0,42.79,6.0312,-0.038,0.025,-0.003,61.0,65.0,60.0,12.2,1504.6,307.9,-0.8,-0.3,967.411,13.25,0.045,303.3
04,2022-03-22T00:30:00,1000.0,42.79,6.0312,-0.042,0.041,0.013,63.0,64.0,60.0,12.2,1504.6,325.8,-0.8,-0.4,967.399,13.25,0.058,314.3
04,2022-03-22T01:00:00,1000.0,42.79,6.0312,-0.049,0.025,-0.014,61.0,65.0,61.0,12.2,1504.6,306.3,-0.9,-0.3,967.359,13.26,0.055,297.0
04,2022-03-22T01:30:00,1000.0,42.79,6.0312,-0.047,0.031,0.007,62.0,63.0,61.0,12.2,1504.6,306.2,-0.6,-0.3,967.341,13.26,0.056,303.4
04,2022-03-22T02:00:00,1000.0,42.79,6.0312,-0.05,0.023,0.009,62.0,63.0,61.0,12.2,1504.6,302.7,-0.7,-0.2,967.314,13.25,0.055,294.7
04,2022-03-22T02:30:00,1000.0,42.79,6.0312,-0.038,0.045,0.006,60.0,62.0,60.0,12.2,1504.5,318.7,-0.7,-0.3,967.307,13.24,0.058,319.8
04,2022-03-22T03:00:00,1000.0,42.79,6.0312,-0.016,0.056,0.001,59.0,61.0,60.0,12.2,1504.5,345.0,-0.7,-0.4,967.275,13.23,0.058,344.1
04,2022-03-22T03:30:00,1000.0,42.79,6.0312,-0.013,0.041,-0.007,59.0,61.0,59.0,12.2,1504.5,337.8,-0.6,-0.4,967.25,13.23,0.043,342.4
04,2022-03-22T04:00:00,1000.0,42.79,6.0312,-0.018,0.048,-0.014,59.0,61.0,58.0,12.2,1504.5,332.9,-0.7,-0.3,967.238,13.24,0.051,339.4
04,2022-03-22T04:30:00,1000.0,42.79,6.0312,-0.026,0.048,-0.005,59.0,61.0,57.0,12.2,1504.5,318.2,-0.5,-0.3,967.23,13.24,0.054,331.6
04,2022-03-22T05:00:00,1000.0,42.79,6.0312,-0.015,0.06,-0.014,59.0,61.0,58.0,12.2,1504.6,334.1,-0.6,-0.4,967.268,13.25,0.061,346.0
04,2022-03-22T05:30:00,1000.0,42.79,6.0312,-0.021,0.055,-0.006,60.0,63.0,60.0,12.2,1504.6,325.4,-0.6,-0.3,967.273,13.26,0.058,339.1
04,2022-03-22T06:00:00,1000.0,42.79,6.0312,-0.036,0.043,-0.01,61.0,64.0,59.0,12.2,1504.6,309.6,-0.7,-0.3,967.28,13.26,0.056,320.1
04,2022-03-22T06:30:00,1000.0,42.79,6.0312,-0.02,0.052,-0.013,61.0,64.0,60.0,12.2,1504.6,326.9,-0.6,-0.3,967.291,13.27,0.055,339.0
04,2022-03-22T07:00:00,1000.0,42.79,6.0312,-0.017,0.061,0.004,61.0,63.0,59.0,12.2,1504.6,331.5,-0.6,-0.4,967.331,13.27,0.063,344.4
04,2022-03-22T07:30:00,1000.0,42.79,6.0312,-0.046,0.04,-0.001,61.0,63.0,61.0,12.2,1504.6,291.6,-0.8,-0.3,967.376,13.27,0.06,311.0
04,2022-03-22T08:00:00,1000.0,42.79,6.0312,-0.037,0.039,-0.005,60.0,62.0,59.0,12.2,1504.6,298.7,-0.7,-0.3,967.402,13.26,0.053,316.5
04,2022-03-22T08:30:00,1000.0,42.79,6.0312,-0.039,0.047,-0.012,61.0,63.0,61.0,12.2,1504.6,299.4,-0.8,-0.3,967.39,13.26,0.061,320.3
04,2022-03-22T09:00:00,1000.0,42.79,6.0312,-0.019,0.053,0.015,62.0,62.0,60.0,12.2,1504.6,313.5,-1.0,-0.3,967.477,13.25,0.056,340.3
04,2022-03-22T09:30:00,1000.0,42.79,6.0312,-0.032,0.036,0.004,63.0,63.0,58.0,12.2,1504.5,309.3,-0.8,-0.3,967.478,13.24,0.048,318.4
04,2022-03-22T10:00:00,1000.0,42.79,6.0312,-0.008,0.046,0.004,61.0,63.0,60.0,12.2,1504.5,338.7,-0.9,-0.4,967.498,13.23,0.046,350.1
04,2022-03-22T10:30:00,1000.0,42.79,6.0312,-0.011,0.042,0.02,60.0,62.0,59.0,12.2,1504.4,324.5,-0.9,-0.3,967.454,13.22,0.043,345.3
04,2022-03-22T11:00:00,1000.0,42.79,6.0312,-0.037,0.036,0.001,60.0,61.0,60.0,12.2,1504.4,316.4,-0.8,-0.2,967.487,13.22,0.051,314.2
04,2022-03-22T11:30:00,1000.0,42.79,6.0312,-0.015,0.047,-0.001,59.0,62.0,59.0,12.2,1504.4,328.1,-0.8,-0.3,967.45,13.21,0.049,342.3
04,2022-03-22T12:00:00,1000.0,42.79,6.0312,-0.038,0.036,-0.022,60.0,62.0,59.0,12.2,1504.4,315.8,-0.7,-0.2,967.417,13.21,0.052,313.5
04,2022-03-22T12:30:00,1000.0,42.79,6.0312,0.0,0.041,-0.03,60.0,62.0,59.0,12.2,1504.4,347.5,-0.6,-0.4,967.378,13.22,0.041,0.0
04,2022-03-22T13:00:00,1000.0,42.79,6.0312,-0.009,0.037,-0.016,61.0,62.0,60.0,12.2,1504.4,329.9,-0.6,-0.3,967.357,13.22,0.038,346.3
04,2022-03-22T13:30:00,1000.0,42.79,6.0312,-0.029,0.033,-0.005,60.0,62.0,59.0,12.2,1504.5,319.2,-0.6,-0.3,967.309,13.23,0.043,318.7
04,2022-03-22T14:00:00,1000.0,42.79,6.0312,-0.037,0.011,-0.021,61.0,63.0,60.0,12.2,1504.5,289.7,-0.6,-0.3,967.259,13.24,0.038,286.6
04,2022-03-22T14:30:00,1000.0,42.79,6.0312,-0.025,0.011,0.0,61.0,63.0,59.0,12.2,1504.6,304.1,-0.6,-0.3,967.244,13.25,0.027,293.7
04,2022-03-22T15:00:00,1000.0,42.79,6.0312,-0.035,0.018,0.018,61.0,62.0,60.0,12.2,1504.6,298.4,-0.7,-0.3,967.213,13.26,0.039,297.2
04,2022-03-22T15:30:00,1000.0,42.79,6.0312,-0.044,0.005,0.016,61.0,62.0,58.0,12.2,1504.6,297.7,-0.8,-0.2,967.265,13.26,0.044,276.5
04,2022-03-22T16:00:00,1000.0,42.79,6.0312,-0.043,-0.001,-0.004,61.0,63.0,59.0,12.2,1504.6,279.0,-0.7,-0.2,967.212,13.25,0.043,268.7
04,2022-03-22T16:30:00,1000.0,42.79,6.0312,-0.04,0.018,-0.009,60.0,62.0,59.0,12.2,1504.6,288.4,-0.7,-0.2,967.239,13.25,0.043,294.2
04,2022-03-22T17:00:00,1000.0,42.79,6.0312,-0.033,0.032,-0.003,60.0,62.0,59.0,12.2,1504.6,312.9,-0.7,-0.3,967.231,13.25,0.045,314.1
04,2022-03-22T17:30:00,1000.0,42.79,6.0312,-0.049,0.025,-0.016,59.0,61.0,59.0,12.2,1504.6,295.8,-0.7,-0.3,967.215,13.25,0.055,297.0
04,2022-03-22T18:00:00,1000.0,42.79,6.0312,-0.018,0.045,-0.011,57.0,59.0,57.0,12.2,1504.6,327.9,-0.6,-0.4,967.3,13.26,0.048,338.2
04,2022-03-22T18:30:00,1000.0,42.79,6.0312,-0.023,0.058,0.007,57.0,59.0,55.0,12.2,1504.6,314.4,-0.7,-0.4,967.24,13.26,0.062,338.4
04,2022-03-22T19:00:00,1000.0,42.79,6.0312,-0.043,0.048,-0.001,56.0,60.0,54.0,12.2,1504.6,298.9,-0.6,-0.3,967.286,13.26,0.064,318.1
04,2022-03-22T19:30:00,1000.0,42.79,6.0312,0.001,0.039,0.011,55.0,57.0,55.0,12.2,1504.6,338.3,-0.7,-0.4,967.308,13.26,0.039,1.5
04,2022-03-22T20:00:00,1000.0,42.79,6.0312,-0.009,0.053,0.004,56.0,60.0,55.0,12.2,1504.5,331.2,-0.7,-0.4,967.333,13.24,0.053,350.4
04,2022-03-22T20:30:00,1000.0,42.79,6.0312,-0.03,0.035,0.002,54.0,58.0,54.0,12.2,1504.5,310.7,-0.7,-0.3,967.417,13.23,0.046,319.4
04,2022-03-22T21:00:00,1000.0,42.79,6.0312,-0.023,0.034,-0.002,54.0,55.0,52.0,12.2,1504.5,328.0,-0.8,-0.3,967.434,13.24,0.041,325.9
